Location: Poughquag
(41.6090°N, 73.6820°W)
Time: 03:22:55
(UTC-04:00)

Transit 2A - Pass Details

Date: 30 May 2020
Orbit: 592 x 967 km, 66.7° (Epoch: 06 July)

Event Time Altitude Azimuth Distance (km) Brightness Sun altitude
Rises 00:33:48 0° 318° (NW) 3,585 10.2 -26.4°
Reaches altitude 10° 00:36:40 10° 307° (NW) 2,671 9.3 -26.5°
Maximum altitude 00:41:48 27° 253° (WSW) 1,759 7.7 -26.5°
Enters shadow 00:41:58 27° 250° (WSW) 1,760 7.7 -26.5°
Drops below altitude 10° 00:46:59 10° 198° (SSW) 2,692 - -26.5°
Sets 00:49:54 0° 186° (S) 3,618 - -26.5°
